Regional Weather Roundup
Issued by NWS

Home | Current Version | Previous Version | Text Only | Print | Product List | Glossary On
Versions: 1 2 3 4 5 6 7 8 9 10 11 12 13 14 15 16 17 18 19 20 21 22 23 24 25 26 27 28 29 30 31 32 33 34 35 36 37 38 39 40 41 42 43 44 45 46 47 48 49 50
000
ASUS44 KBMX 171310
RWRAL

ALABAMA REGIONAL WEATHER ROUNDUP
NATIONAL WEATHER SERVICE BIRMINGHAM AL
700 AM CST TUE JAN 17 2017

NOTE: "FAIR" INDICATES FEW OR NO CLOUDS BELOW 12,000 FEET
WITH NO SIGNIFICANT WEATHER AND/OR OBSTRUCTIONS TO VISIBILITY.

THE REMARK "TC" DENOTES TEMPERATURE IN DEGREES CELSIUS.

ALZ001>011-014-016>018-020-171400-
NORTH ALABAMA

CITY           SKY/WX    TMP DP  RH WIND       PRES   REMARKS
MUSCLE SHOALS  CLOUDY    66  60  81 S13       30.07S
HUNTSVILLE     CLOUDY    65  60  84 S13       30.11R
DECATUR        PTCLDY    62  61  96 S14       30.10S
HALEYVILLE     CLOUDY    64  61  90 S14       30.12R
GADSDEN        CLOUDY    62  57  83 S9        30.17R
$$

ALZ012-013-022-023-030>036-040>044-171400-
WEST CENTRAL ALABAMA

CITY           SKY/WX    TMP DP  RH WIND       PRES   REMARKS
TUSCALOOSA     CLOUDY    64  62  93 S12       30.15S
$$

ALZ015-024>027-033>036-040>044-171400-
CENTRAL ALABAMA

CITY           SKY/WX    TMP DP  RH WIND       PRES   REMARKS
BIRMINGHAM     CLOUDY    63  60  90 S13       30.18S
MONTGOMERY     CLOUDY    59  53  80 CALM      30.20R
SHELBY CO ARPT CLOUDY    63  62  97 S6        30.18R
MAXWELL AFB    CLOUDY    57  56  97 CALM      30.19R
GREENVILLE     CLOUDY    60  57  89 CALM      30.19R FOG
$$

ALZ019-021-028-029-037-038-045>048-171400-
EAST CENTRAL ALABAMA

CITY           SKY/WX    TMP DP  RH WIND       PRES   REMARKS
ANNISTON       CLOUDY    63  58  83 SW5       30.19R
ALEXANDER CITY CLOUDY    57  56  95 CALM      30.20R
AUBURN         CLOUDY    57  54  89 CALM      30.23R
$$

ALZ051>064-171400-
SOUTHWEST ALABAMA

CITY           SKY/WX    TMP DP  RH WIND       PRES   REMARKS
MOBILE         CLOUDY    67  65  93 S6        30.17R FOG
BROOKLEY FIELD PTCLDY    67  66  97 SE7       30.18R FOG
EVERGREEN      FOG       64  63  96 S5        30.18S VSB 1/4
$$

ALZ049-050-065>069-171400-
SOUTHEAST ALABAMA

CITY           SKY/WX    TMP DP  RH WIND       PRES   REMARKS
DOTHAN         CLEAR     52  52 100 CALM      30.24S
OZARK          CLEAR     56  55  97 SE5       30.20S
TROY           MOCLDY    53  53 100 CALM      30.20R FOG
EUFAULA        FAIR      51  49  92 CALM      30.21R
$$



USA.gov is the U.S. government's official web portal to all federal, state and local government web resources and services.